FW7746 Weather Reports


Display with metric or nautical units.
time (UTC)temp
F
wind
direction
speed
MPH
gust
MPH
rain 1hr
in
rain 24hr
in
rain mn
in
humidity
%
barometer
mb
20260509102603 43 316 0.0 0.0 0.00 0.00 0.00 69 1019.2
20260509102104 43 316 0.0 0.0 0.00 0.00 0.00 67 1019.1
20260509101603 43 316 0.0 0.0 0.00 0.00 0.00 67 1019.1
20260509101104 43 316 0.0 0.0 0.00 0.00 0.00 67 1019.2
20260509100604 43 316 0.0 0.0 0.00 0.00 0.00 67 1019.2
20260509100104 43 316 0.0 0.0 0.00 0.00 0.00 67 1019.3
20260509095604 43 316 0.0 0.0 0.00 0.00 0.00 67 1019.3
20260509095104 43 316 0.0 0.0 0.00 0.00 0.00 66 1019.3
20260509094604 44 316 0.0 0.0 0.00 0.00 0.00 66 1019.4
20260509094104 44 316 0.0 0.0 0.00 0.00 0.00 66 1019.4
20260509093104 44 316 0.0 0.0 0.00 0.00 0.00 66 1019.3
20260509092604 44 316 0.0 0.0 0.00 0.00 0.00 66 1019.4
20260509092104 44 316 0.0 0.0 0.00 0.00 0.00 66 1019.2
20260509091603 44 316 0.0 0.0 0.00 0.00 0.00 66 1019.2
20260509091104 44 316 0.0 0.0 0.00 0.00 0.00 66 1019.3
20260509090604 44 316 0.0 0.0 0.00 0.00 0.00 65 1019.3
20260509090104 44 316 0.0 0.0 0.00 0.00 0.00 65 1019.4
20260509085104 45 316 0.0 0.0 0.00 0.00 0.00 65 1019.2
20260509084604 45 316 0.0 0.0 0.00 0.00 0.00 65 1019.3
20260509084104 45 316 0.0 0.0 0.00 0.00 0.00 65 1019.3
20260509083604 45 316 0.0 0.0 0.00 0.00 0.00 65 1019.4
20260509083103 45 316 0.0 0.0 0.00 0.00 0.00 64 1019.4
20260509082104 45 316 0.0 0.0 0.00 0.00 0.00 65 1019.4
20260509081104 46 316 0.0 0.0 0.00 0.00 0.00 64 1019.4
20260509080604 46 316 0.0 0.0 0.00 0.00 0.00 64 1019.4
20260509080105 46 317 0.0 0.0 0.00 0.00 0.00 64 1019.4
20260509075604 46 316 0.0 0.0 0.00 0.00 0.00 63 1019.4
20260509075103 46 316 0.0 0.0 0.00 0.00 0.00 63 1019.4
20260509074604 46 316 0.0 0.0 0.00 0.00 0.00 62 1019.4
20260509074104 46 316 0.0 0.0 0.00 0.00 0.00 62 1019.3
20260509073603 47 316 0.0 0.0 0.00 0.00 0.00 62 1019.3
20260509073104 47 316 0.0 0.0 0.00 0.00 0.00 61 1019.2
20260509072604 47 316 0.0 0.0 0.00 0.00 0.00 61 1019.2
20260509072104 47 316 0.0 0.0 0.00 0.00 0.00 60 1019.2
20260509071604 47 316 0.0 0.0 0.00 0.00 0.00 59 1019.2
20260509071104 48 316 0.0 0.0 0.00 0.00 0.00 60 1019.2
20260509070605 48 316 0.0 0.0 0.00 0.00 0.00 59 1019.0
20260509070104 48 316 0.0 0.0 0.00 0.00 0.00 59 1019.0
20260509065604 49 316 0.0 0.0 0.00 0.00 0.00 58 1018.8
20260509065104 49 316 0.0 0.0 0.00 0.00 0.00 58 1018.8
20260509064604 49 316 0.0 0.0 0.00 0.00 0.00 58 1018.8
20260509064105 49 316 0.0 0.0 0.00 0.00 0.00 58 1018.8
20260509063604 49 316 0.0 0.0 0.00 0.00 0.00 59 1018.8
20260509063104 50 316 0.0 0.0 0.00 0.00 0.00 58 1018.8
20260509062605 50 316 0.0 0.0 0.00 0.00 0.00 58 1018.8
20260509062104 50 316 0.0 0.0 0.00 0.00 0.00 58 1018.8
20260509061604 51 316 0.0 0.0 0.00 0.00 0.00 58 1018.7
20260509061104 51 316 0.0 0.0 0.00 0.00 0.00 57 1018.6
20260509060604 51 316 0.0 0.0 0.00 0.00 0.00 56 1018.5
20260509060105 52 316 0.0 0.0 0.00 0.00 0.00 56 1018.4
20260509055604 52 316 0.0 0.0 0.00 0.00 0.00 55 1018.4
20260509055104 52 316 0.0 0.0 0.00 0.00 0.00 55 1018.3
20260509054604 52 316 0.0 0.0 0.00 0.00 0.00 54 1018.4
20260509054104 53 316 0.0 0.0 0.00 0.00 0.00 53 1018.4
20260509053604 53 316 0.0 0.0 0.00 0.00 0.00 53 1018.4
20260509053105 53 316 0.0 0.0 0.00 0.00 0.00 53 1018.4
20260509052605 53 316 0.0 0.0 0.00 0.00 0.00 53 1018.5
20260509052104 54 316 0.0 0.0 0.00 0.00 0.00 52 1018.5
20260509051604 54 316 0.0 0.0 0.00 0.00 0.00 51 1018.5
20260509051104 54 316 0.0 0.0 0.00 0.00 0.00 51 1018.4
20260509050604 55 316 0.0 0.0 0.00 0.00 0.00 50 1018.4
20260509050104 55 316 0.0 0.0 0.00 0.00 0.00 50 1018.3
20260509045604 55 316 0.0 0.0 0.00 0.00 0.00 49 1018.1
20260509045104 56 316 0.0 0.0 0.00 0.00 0.00 48 1018.0
20260509044604 56 316 0.0 0.0 0.00 0.00 0.00 48 1018.0
20260509043604 57 316 0.0 0.0 0.00 0.00 0.00 47 1017.9
20260509043105 57 316 0.0 0.0 0.00 0.00 0.00 47 1017.8
20260509042104 58 316 0.0 0.0 0.00 0.00 0.00 45 1017.7
20260509041604 58 316 0.0 0.0 0.00 0.00 0.00 45 1017.7
20260509041104 58 316 0.0 0.0 0.00 0.00 0.00 45 1017.6
20260509040604 58 316 0.0 0.0 0.00 0.00 0.00 44 1017.5
20260509040104 58 316 0.0 0.0 0.00 0.00 0.00 44 1017.5
20260509035104 59 316 0.0 0.0 0.00 0.00 0.00 43 1017.4
20260509033604 60 316 0.0 2.0 0.00 0.00 0.00 42 1017.5
20260509033104 60 316 0.0 1.0 0.00 0.00 0.00 41 1017.5
20260509032604 60 316 0.0 1.0 0.00 0.00 0.00 41 1017.4
20260509031604 61 312 0.0 3.0 0.00 0.00 0.00 40 1017.2
20260509031104 61 244 0.0 3.0 0.00 0.00 0.00 39 1017.2
20260509030604 61 282 0.0 1.0 0.00 0.00 0.00 39 1017.2
20260509030104 62 314 0.0 3.0 0.00 0.00 0.00 38 1017.1
20260509025604 62 298 1.0 3.0 0.00 0.00 0.00 37 1017.0
20260509025104 62 328 0.0 6.0 0.00 0.00 0.00 37 1016.9
20260509024104 63 334 2.0 10.0 0.00 0.00 0.00 35 1016.6
20260509023604 64 323 0.0 6.0 0.00 0.00 0.00 35 1016.6
20260509022604 65 293 0.0 0.0 0.00 0.00 0.00 32 1016.6
20260509022104 65 323 1.0 5.0 0.00 0.00 0.00 31 1016.6
20260509021104 66 244 0.0 3.0 0.00 0.00 0.00 30 1016.3
20260509020604 67 300 0.0 1.0 0.00 0.00 0.00 30 1016.3
20260509020104 67 244 0.0 2.0 0.00 0.00 0.00 30 1016.3
20260509015605 68 331 1.0 3.0 0.00 0.00 0.00 29 1016.1
20260509015104 68 284 0.0 2.0 0.00 0.00 0.00 27 1016.0
20260509014604 68 280 0.0 3.0 0.00 0.00 0.00 25 1015.9
20260509014104 69 334 1.0 5.0 0.00 0.00 0.00 25 1015.9
20260509013104 69 297 1.0 3.0 0.00 0.00 0.00 24 1015.6
20260509012605 69 232 0.0 3.0 0.00 0.00 0.00 24 1015.5
20260509011604 70 327 0.0 3.0 0.00 0.00 0.00 26 1015.3
20260509011104 70 282 0.0 3.0 0.00 0.00 0.00 26 1015.3
20260509010605 71 291 1.0 6.0 0.00 0.00 0.00 25 1015.5
20260509010105 71 264 0.0 1.0 0.00 0.00 0.00 24 1015.4
20260509004605 71 326 1.0 3.0 0.00 0.00 0.00 25 1015.4
20260509004104 72 236 0.0 8.0 0.00 0.00 0.00 24 1015.6
20260509003604 72 210 0.0 6.0 0.00 0.00 0.00 24 1015.5
20260509003104 73 218 1.0 7.0 0.00 0.00 0.00 23 1015.5
20260509002604 73 270 0.0 5.0 0.00 0.00 0.00 23 1015.5
20260509002104 73 233 1.0 3.0 0.00 0.00 0.00 23 1015.4
20260509001604 73 350 0.0 3.0 0.00 0.00 0.00 23 1015.3
20260509001105 73 262 1.0 6.0 0.00 0.00 0.00 23 1015.4
20260509000604 74 252 0.0 2.0 0.00 0.00 0.00 23 1015.4
20260508235604 74 249 0.0 9.0 0.00 0.00 0.00 24 1015.3
20260508235104 75 255 1.0 5.0 0.00 0.00 0.00 24 1015.4
20260508233604 74 255 1.0 7.0 0.00 0.00 0.00 23 1015.4
20260508233104 75 285 0.0 2.0 0.00 0.00 0.00 23 1015.5
20260508232104 75 308 0.0 8.0 0.00 0.00 0.00 22 1015.5
20260508231104 75 238 1.0 7.0 0.00 0.00 0.00 21 1015.5
20260508230604 75 244 2.0 9.0 0.00 0.00 0.00 21 1015.5
20260508230104 75 245 1.0 7.0 0.00 0.00 0.00 22 1015.4
20260508225604 75 229 0.0 6.0 0.00 0.00 0.00 22 1015.3
20260508225104 75 244 1.0 3.0 0.00 0.00 0.00 22 1015.2
20260508224604 75 219 1.0 5.0 0.00 0.00 0.00 21 1015.4
20260508224104 75 229 1.0 3.0 0.00 0.00 0.00 21 1015.2
20260508223604 75 249 1.0 9.0 0.00 0.00 0.00 21 1015.2
20260508223104 76 331 2.0 13.0 0.00 0.00 0.00 21 1015.2
20260508222604 76 285 1.0 3.0 0.00 0.00 0.00 22 1015.3
20260508221104 75 296 2.0 5.0 0.00 0.00 0.00 22 1015.5
20260508220604 76 242 1.0 8.0 0.00 0.00 0.00 21 1015.5
20260508220105 76 248 1.0 3.0 0.00 0.00 0.00 21 1015.4
20260508215605 76 188 1.0 6.0 0.00 0.00 0.00 22 1015.5
20260508215104 75 294 0.0 5.0 0.00 0.00 0.00 21 1015.4
20260508214604 75 320 1.0 6.0 0.00 0.00 0.00 21 1015.5
20260508214104 76 313 0.0 3.0 0.00 0.00 0.00 21 1015.6
20260508213605 75 230 1.0 5.0 0.00 0.00 0.00 22 1015.5
20260508212605 75 274 0.0 2.0 0.00 0.00 0.00 22 1015.6
20260508212104 75 288 1.0 10.0 0.00 0.00 0.00 22 1015.6
20260508211604 74 216 1.0 3.0 0.00 0.00 0.00 22 1015.6
20260508211104 74 331 1.0 3.0 0.00 0.00 0.00 20 1015.7
20260508210604 74 278 0.0 3.0 0.00 0.00 0.00 21 1015.5
20260508210105 74 333 2.0 9.0 0.00 0.00 0.00 19 1015.5
20260508205604 73 247 0.0 3.0 0.00 0.00 0.00 20 1015.5
20260508205104 73 333 1.0 5.0 0.00 0.00 0.00 20 1015.5
20260508204604 74 310 1.0 5.0 0.00 0.00 0.00 21 1015.4
20260508204105 73 332 1.0 6.0 0.00 0.00 0.00 20 1015.3
20260508203604 74 297 0.0 10.0 0.00 0.00 0.00 20 1015.2
20260508203104 73 327 2.0 8.0 0.00 0.00 0.00 21 1015.3
20260508202604 74 49 0.0 2.0 0.00 0.00 0.00 19 1015.3
20260508202104 73 137 0.0 3.0 0.00 0.00 0.00 19 1015.3
20260508201604 73 319 1.0 5.0 0.00 0.00 0.00 19 1015.5
20260508200604 72 331 1.0 10.0 0.00 0.00 0.00 21 1015.5
20260508200104 73 334 2.0 12.0 0.00 0.00 0.00 20 1015.4
20260508195604 73 289 1.0 8.0 0.00 0.00 0.00 21 1015.3
20260508195104 73 175 1.0 8.0 0.00 0.00 0.00 20 1015.1
20260508194605 73 281 0.0 5.0 0.00 0.00 0.00 19 1015.3
20260508194104 72 208 0.0 12.0 0.00 0.00 0.00 20 1015.4
20260508193604 72 243 1.0 8.0 0.00 0.00 0.00 19 1015.4
20260508193104 71 236 1.0 3.0 0.00 0.00 0.00 18 1015.4
20260508192604 71 256 0.0 5.0 0.00 0.00 0.00 19 1015.4
20260508192104 71 102 1.0 3.0 0.00 0.00 0.00 22 1015.3
20260508191605 71 318 0.0 3.0 0.00 0.00 0.00 23 1015.4
20260508191104 71 157 1.0 3.0 0.00 0.00 0.00 24 1015.4
20260508190604 70 166 0.0 2.0 0.00 0.00 0.00 24 1015.5
20260508190104 70 231 1.0 3.0 0.00 0.00 0.00 22 1015.5
20260508185604 69 142 1.0 3.0 0.00 0.00 0.00 21 1015.5
20260508185104 68 147 0.0 3.0 0.00 0.00 0.00 21 1015.6
20260508184604 68 177 0.0 1.0 0.00 0.00 0.00 21 1015.7
20260508184104 67 151 0.0 3.0 0.00 0.00 0.00 22 1015.7
20260508183605 66 170 0.0 6.0 0.00 0.00 0.00 24 1015.6
20260508183104 65 311 0.0 6.0 0.00 0.00 0.00 25 1015.6
20260508182604 64 308 0.0 3.0 0.00 0.00 0.00 25 1015.7
20260508182104 64 239 1.0 5.0 0.00 0.00 0.00 24 1015.6
20260508181604 64 214 0.0 8.0 0.00 0.00 0.00 25 1015.5
20260508181104 64 262 0.0 3.0 0.00 0.00 0.00 25 1015.4
20260508175604 64 191 0.0 3.0 0.00 0.00 0.00 28 1015.3
20260508174104 63 341 0.0 3.0 0.00 0.00 0.00 33 1015.4
20260508173604 63 252 0.0 3.0 0.00 0.00 0.00 32 1015.4
20260508173104 63 245 1.0 3.0 0.00 0.00 0.00 32 1015.3
20260508172104 64 269 1.0 6.0 0.00 0.00 0.00 29 1015.4
20260508171604 63 250 1.0 5.0 0.00 0.00 0.00 29 1015.4
20260508171104 63 270 0.0 3.0 0.00 0.00 0.00 29 1015.5
20260508170604 63 262 1.0 3.0 0.00 0.00 0.00 31 1015.3
20260508165605 62 144 0.0 5.0 0.00 0.00 0.00 36 1015.3
20260508165104 61 209 0.0 1.0 0.00 0.00 0.00 39 1015.3
20260508164104 61 180 1.0 3.0 0.00 0.00 0.00 38 1015.3
20260508163604 61 219 0.0 3.0 0.00 0.00 0.00 37 1015.3
20260508163104 61 163 0.0 2.0 0.00 0.00 0.00 38 1015.4
20260508162604 61 221 1.0 7.0 0.00 0.00 0.00 37 1015.4
20260508161604 61 200 0.0 7.0 0.00 0.00 0.00 37 1015.2
20260508161104 61 209 1.0 6.0 0.00 0.00 0.00 35 1015.2
20260508160604 60 171 0.0 3.0 0.00 0.00 0.00 38 1015.0
20260508160105 59 199 1.0 6.0 0.00 0.00 0.00 40 1015.0
20260508155604 58 203 1.0 5.0 0.00 0.00 0.00 40 1014.9
20260508154603 57 174 1.0 3.0 0.00 0.00 0.00 44 1014.8
20260508154103 56 149 1.0 5.0 0.00 0.00 0.00 45 1014.8
20260508153603 56 159 0.0 3.0 0.00 0.00 0.00 45 1014.8
20260508153103 56 158 1.0 3.0 0.00 0.00 0.00 47 1014.8
20260508152603 55 215 0.0 5.0 0.00 0.00 0.00 48 1014.8
20260508152102 54 211 1.0 8.0 0.00 0.00 0.00 49 1014.8
20260508151603 53 194 0.0 2.0 0.00 0.00 0.00 50 1014.8
20260508151103 53 192 0.0 3.0 0.00 0.00 0.00 50 1014.8
20260508150603 52 227 0.0 2.0 0.00 0.00 0.00 50 1014.7
20260508145603 52 178 0.0 2.0 0.00 0.00 0.00 51 1014.6
20260508145103 52 226 0.0 3.0 0.00 0.00 0.00 51 1014.5
20260508144603 52 215 0.0 3.0 0.00 0.00 0.00 51 1014.4
20260508144103 52 222 1.0 3.0 0.00 0.00 0.00 51 1014.4
20260508143604 52 218 0.0 1.0 0.00 0.00 0.00 52 1014.3
20260508143103 51 252 0.0 3.0 0.00 0.00 0.00 53 1014.3
20260508142603 51 183 0.0 1.0 0.00 0.00 0.00 54 1014.3
20260508142103 51 172 0.0 3.0 0.00 0.00 0.00 55 1014.3
20260508141603 50 158 0.0 3.0 0.00 0.00 0.00 55 1014.3
20260508141103 50 137 0.0 6.0 0.00 0.00 0.00 55 1014.3
20260508140603 50 238 0.0 2.0 0.00 0.00 0.00 55 1014.3
20260508140103 50 193 0.0 1.0 0.00 0.00 0.00 55 1014.4
20260508135603 50 179 0.0 0.0 0.00 0.00 0.00 55 1014.3
20260508135103 50 180 0.0 1.0 0.00 0.00 0.00 54 1014.4
20260508134603 50 220 0.0 3.0 0.00 0.00 0.00 54 1014.2
20260508134103 50 211 0.0 2.0 0.00 0.00 0.00 54 1014.4
20260508133603 49 217 0.0 1.0 0.00 0.00 0.00 55 1014.4
20260508133103 49 221 0.0 2.0 0.00 0.00 0.00 55 1014.2
20260508132603 49 234 0.0 1.0 0.00 0.00 0.00 56 1014.2
20260508132103 49 255 0.0 3.0 0.00 0.00 0.00 56 1014.1
20260508131603 49 247 0.0 3.0 0.00 0.00 0.00 57 1014.2
20260508131103 49 224 1.0 8.0 0.00 0.00 0.00 57 1014.1
20260508130603 49 210 0.0 2.0 0.00 0.00 0.00 57 1014.0
20260508125604 49 139 0.0 2.0 0.00 0.00 0.00 58 1013.9
20260508125103 49 207 0.0 2.0 0.00 0.00 0.00 57 1013.8
20260508124603 49 211 0.0 1.0 0.00 0.00 0.00 57 1013.6
20260508124103 49 203 0.0 3.0 0.00 0.00 0.00 56 1013.6
20260508123603 49 183 0.0 3.0 0.00 0.00 0.00 56 1013.6
20260508122603 50 188 0.0 1.0 0.00 0.00 0.00 56 1013.6
20260508122103 50 206 0.0 3.0 0.00 0.00 0.00 55 1013.7
20260508121604 50 206 0.0 3.0 0.00 0.00 0.00 55 1013.7
20260508120603 50 180 0.0 2.0 0.00 0.00 0.00 54 1013.7
20260508120104 50 212 0.0 3.0 0.00 0.00 0.00 54 1013.8
20260508115603 51 199 0.0 0.0 0.00 0.00 0.00 54 1013.8
20260508115104 51 215 0.0 2.0 0.00 0.00 0.00 53 1013.8
20260508114103 51 211 0.0 2.0 0.00 0.00 0.00 52 1013.6
20260508113103 51 198 0.0 1.0 0.00 0.00 0.00 50 1013.5
20260508112604 51 86 0.0 2.0 0.00 0.00 0.00 50 1013.6
20260508112104 51 243 0.0 3.0 0.00 0.00 0.00 49 1013.6
20260508111603 51 126 0.0 3.0 0.00 0.00 0.00 50 1013.6
20260508111104 51 219 0.0 6.0 0.00 0.00 0.00 50 1013.6
20260508110603 51 201 0.0 6.0 0.00 0.00 0.00 49 1013.6
20260508110104 52 257 1.0 3.0 0.00 0.00 0.00 49 1013.6
20260508105103 52 189 0.0 1.0 0.00 0.00 0.00 48 1013.4
20260508104103 52 245 0.0 1.0 0.00 0.00 0.00 48 1013.4
20260508103604 52 35 0.0 3.0 0.00 0.00 0.00 47 1013.2